When you browse on this site, cookies collect data to enhance your experience and personalize the content and advertising you see.
Visit our Privacy Policy to learn more. By continuing to use the site, you agree to this use of cookies and data.
  • In Portugal
  • List of Countries
  • For 7 days
  • Water Temperature
  • Weather Map
  • Weather Widgets
  • user-avatar
    Login

    Hourly Weather Sherpur

    Today, 28 May, Thursday

    Time Temperature Precipitation Wind Pressure Humidity
    00:00 +19°C° 0 mm 2 mps 610 mmHg 48%
    01:00 +18°C° 0 mm 2 mps 609 mmHg 50%
    02:00 +17°C° 0 mm 2 mps 609 mmHg 52%
    03:00 +17°C° 0 mm 2 mps 609 mmHg 53%
    04:00 +17°C° 0 mm 2 mps 608 mmHg 54%
    05:00 +16°C° 0 mm 2 mps 608 mmHg 55%
    06:00 +19°C° 0 mm 1 mps 609 mmHg 49%
    07:00 +20°C° 0 mm 1 mps 610 mmHg 43%
    08:00 +22°C° 0 mm 1 mps 610 mmHg 38%
    09:00 +23°C° 0 mm 1 mps 610 mmHg 34%
    10:00 +24°C° 0 mm 2 mps 611 mmHg 30%
    11:00 +26°C° 0 mm 2 mps 611 mmHg 26%
    12:00 +27°C° 0 mm 2 mps 611 mmHg 24%
    13:00 +27°C° 0 mm 2 mps 611 mmHg 23%
    14:00 +28°C° 0 mm 2 mps 611 mmHg 21%
    15:00 +28°C° 0 mm 3 mps 611 mmHg 22%
    16:00 +28°C° 0 mm 4 mps 611 mmHg 22%
    17:00 +28°C° 0 mm 5 mps 611 mmHg 23%
    18:00 +26°C° 0.1 mm 5 mps 610 mmHg 29%
    19:00 +23°C° 0.1 mm 4 mps 610 mmHg 36%
    20:00 +22°C° 0.1 mm 3 mps 610 mmHg 42%
    21:00 +21°C° 0.1 mm 3 mps 610 mmHg 45%
    22:00 +20°C° 0.1 mm 3 mps 609 mmHg 49%
    23:00 +19°C° 0.1 mm 2 mps 609 mmHg 52%

    Tomorrow, 29 May, Friday

    Time Temperature Precipitation Wind Pressure Humidity
    00:00 +19°C° 0 mm 2 mps 609 mmHg 53%
    01:00 +19°C° 0 mm 2 mps 608 mmHg 54%
    02:00 +19°C° 0 mm 1 mps 608 mmHg 55%
    03:00 +19°C° 0 mm 1 mps 608 mmHg 55%
    04:00 +19°C° 0 mm 1 mps 608 mmHg 55%
    05:00 +18°C° 0 mm 1 mps 607 mmHg 55%
    06:00 +20°C° 0 mm 1 mps 608 mmHg 50%
    07:00 +21°C° 0 mm 1 mps 609 mmHg 44%
    08:00 +22°C° 0 mm 1 mps 610 mmHg 39%
    09:00 +24°C° 0 mm 1 mps 610 mmHg 35%
    10:00 +25°C° 0 mm 1 mps 610 mmHg 30%
    11:00 +26°C° 0 mm 1 mps 611 mmHg 26%
    12:00 +27°C° 0 mm 1 mps 611 mmHg 25%
    13:00 +28°C° 0 mm 2 mps 611 mmHg 23%
    14:00 +28°C° 0 mm 2 mps 611 mmHg 22%
    15:00 +27°C° 0.1 mm 3 mps 611 mmHg 26%
    16:00 +26°C° 0.1 mm 3 mps 611 mmHg 30%
    17:00 +25°C° 0.1 mm 4 mps 610 mmHg 34%
    18:00 +23°C° 0.7 mm 4 mps 610 mmHg 43%
    19:00 +21°C° 0.7 mm 4 mps 610 mmHg 51%
    20:00 +19°C° 0.7 mm 3 mps 610 mmHg 59%
    21:00 +19°C° 0 mm 3 mps 610 mmHg 59%
    22:00 +19°C° 0 mm 2 mps 610 mmHg 58%
    23:00 +19°C° 0 mm 2 mps 610 mmHg 58%

    Day after tomorrow, 30 May, Saturday

    Time Temperature Precipitation Wind Pressure Humidity
    00:00 +19°C° 0 mm 1 mps 609 mmHg 59%
    01:00 +19°C° 0 mm 1 mps 609 mmHg 60%
    02:00 +19°C° 0 mm 1 mps 608 mmHg 61%
    03:00 +18°C° 0 mm 1 mps 608 mmHg 61%
    04:00 +18°C° 0 mm 1 mps 608 mmHg 61%
    05:00 +18°C° 0 mm 1 mps 608 mmHg 62%
    06:00 +19°C° 0 mm 1 mps 609 mmHg 55%
    07:00 +20°C° 0 mm 1 mps 610 mmHg 49%
    08:00 +19°C° 0 mm 0 mps 611 mmHg 43%
    09:00 +23°C° 0 mm 1 mps 611 mmHg 38%
    10:00 +24°C° 0 mm 1 mps 611 mmHg 33%
    11:00 +25°C° 0 mm 1 mps 612 mmHg 28%
    12:00 +26°C° 0 mm 1 mps 612 mmHg 26%
    13:00 +27°C° 0 mm 1 mps 612 mmHg 24%
    14:00 +27°C° 0 mm 1 mps 612 mmHg 22%
    15:00 +28°C° 0 mm 1 mps 611 mmHg 22%
    16:00 +28°C° 0 mm 1 mps 611 mmHg 22%
    17:00 +28°C° 0 mm 1 mps 611 mmHg 22%
    18:00 +27°C° 0 mm 2 mps 611 mmHg 26%
    19:00 +26°C° 0 mm 3 mps 611 mmHg 30%
    20:00 +24°C° 0 mm 3 mps 611 mmHg 34%
    21:00 +22°C° 0 mm 3 mps 611 mmHg 37%
    22:00 +21°C° 0 mm 2 mps 611 mmHg 40%
    23:00 +20°C° 0 mm 2 mps 610 mmHg 44%

    31 May, Sunday

    Time Temperature Precipitation Wind Pressure Humidity
    00:00 +21°C° 0 mm 1 mps 610 mmHg 47%
    01:00 +20°C° 0 mm 1 mps 610 mmHg 50%
    02:00 +19°C° 0 mm 1 mps 609 mmHg 53%
    03:00 +19°C° 0 mm 1 mps 609 mmHg 55%
    04:00 +18°C° 0 mm 1 mps 609 mmHg 56%
    05:00 +18°C° 0 mm 1 mps 609 mmHg 57%
    06:00 +19°C° 0 mm 1 mps 609 mmHg 52%
    07:00 +20°C° 0 mm 1 mps 610 mmHg 48%
    08:00 +21°C° 0 mm 1 mps 611 mmHg 43%
    09:00 +23°C° 0 mm 1 mps 611 mmHg 37%
    10:00 +24°C° 0 mm 1 mps 611 mmHg 31%
    11:00 +25°C° 0 mm 1 mps 612 mmHg 25%
    12:00 +26°C° 0 mm 1 mps 612 mmHg 23%
    13:00 +27°C° 0 mm 1 mps 612 mmHg 20%
    14:00 +28°C° 0 mm 1 mps 612 mmHg 18%
    15:00 +28°C° 0 mm 2 mps 612 mmHg 17%
    16:00 +29°C° 0 mm 2 mps 612 mmHg 16%
    17:00 +29°C° 0 mm 2 mps 612 mmHg 15%
    18:00 +28°C° 0 mm 3 mps 611 mmHg 18%
    19:00 +26°C° 0 mm 3 mps 611 mmHg 20%
    20:00 +25°C° 0 mm 3 mps 611 mmHg 23%
    21:00 +24°C° 0 mm 3 mps 611 mmHg 26%
    22:00 +23°C° 0 mm 2 mps 611 mmHg 29%
    23:00 +21°C° 0 mm 2 mps 611 mmHg 32%

    1 June, Monday

    Time Temperature Precipitation Wind Pressure Humidity
    00:00 +21°C° 0 mm 1 mps 610 mmHg 34%
    01:00 +20°C° 0 mm 1 mps 610 mmHg 35%
    02:00 +19°C° 0 mm 1 mps 610 mmHg 36%
    03:00 +19°C° 0 mm 1 mps 609 mmHg 35%
    04:00 +18°C° 0 mm 1 mps 609 mmHg 35%
    05:00 +18°C° 0 mm 1 mps 609 mmHg 35%
    06:00 +19°C° 0 mm 1 mps 610 mmHg 30%
    07:00 +21°C° 0 mm 1 mps 611 mmHg 25%
    08:00 +22°C° 0 mm 1 mps 612 mmHg 20%
    09:00 +23°C° 0 mm 1 mps 612 mmHg 18%
    10:00 +25°C° 0 mm 1 mps 612 mmHg 16%
    11:00 +26°C° 0 mm 1 mps 613 mmHg 14%
    12:00 +27°C° 0 mm 1 mps 613 mmHg 13%
    13:00 +28°C° 0 mm 1 mps 613 mmHg 12%
    14:00 +29°C° 0 mm 1 mps 613 mmHg 11%
    15:00 +29°C° 0 mm 3 mps 613 mmHg 11%
    16:00 +29°C° 0 mm 4 mps 612 mmHg 11%
    17:00 +30°C° 0 mm 5 mps 612 mmHg 11%
    18:00 +28°C° 0 mm 4 mps 612 mmHg 13%
    19:00 +26°C° 0 mm 4 mps 611 mmHg 16%
    20:00 +25°C° 0 mm 3 mps 611 mmHg 18%
    21:00 +24°C° 0 mm 3 mps 611 mmHg 21%
    22:00 +23°C° 0 mm 2 mps 611 mmHg 23%
    23:00 +21°C° 0 mm 2 mps 611 mmHg 25%

    2 June, Tuesday

    Time Temperature Precipitation Wind Pressure Humidity
    00:00 +20°C° 0 mm 2 mps 611 mmHg 26%
    01:00 +19°C° 0 mm 2 mps 610 mmHg 28%
    02:00 +19°C° 0 mm 1 mps 610 mmHg 29%
    03:00 +19°C° 0 mm 1 mps 610 mmHg 30%
    04:00 +18°C° 0 mm 1 mps 610 mmHg 30%
    05:00 +18°C° 0 mm 1 mps 609 mmHg 31%
    06:00 +19°C° 0 mm 1 mps 610 mmHg 27%
    07:00 +21°C° 0 mm 1 mps 611 mmHg 24%
    08:00 +23°C° 0 mm 1 mps 612 mmHg 20%
    09:00 +24°C° 0 mm 1 mps 612 mmHg 18%
    10:00 +25°C° 0 mm 1 mps 612 mmHg 16%
    11:00 +27°C° 0 mm 1 mps 613 mmHg 15%
    12:00 +28°C° 0 mm 2 mps 613 mmHg 14%
    13:00 +29°C° 0 mm 2 mps 613 mmHg 13%
    14:00 +30°C° 0 mm 3 mps 613 mmHg 12%
    15:00 +30°C° 0 mm 4 mps 613 mmHg 12%
    16:00 +30°C° 0 mm 5 mps 613 mmHg 12%
    17:00 +30°C° 0 mm 6 mps 612 mmHg 12%
    18:00 +28°C° 0 mm 5 mps 612 mmHg 15%
    19:00 +27°C° 0 mm 5 mps 611 mmHg 17%
    20:00 +25°C° 0 mm 4 mps 611 mmHg 20%
    21:00 +23°C° 0 mm 4 mps 611 mmHg 21%
    22:00 +22°C° 0 mm 3 mps 611 mmHg 23%
    23:00 +21°C° 0 mm 3 mps 611 mmHg 25%
    Show more